Guam Agana, GU

4:09 PM ChST on October 23, 2019 (GMT +1000)
Guam International

Weather History for PGUM - August, 2019

Change the Weather History Date:

Friday, August 9, 2019

  Actual Average Record
Temperature  
Mean Temperature 82 °F -  
Max Temperature 87 °F 84 °F 89 °F (2001)
Min Temperature 78 °F 75 °F 73 °F (2012)
Cooling Degree Days 18    
Growing Degree Days 32 (Base 50)    
Moisture  
Dew Point 76 °F    
Average Humidity 80    
Maximum Humidity 94    
Minimum Humidity 65    
Precipitation  
Precipitation 0.01 in - - ()
Sea Level Pressure  
Sea Level Pressure 29.79 in    
Wind  
Wind Speed 6 mph (SSW)    
Max Wind Speed 12 mph    
Max Gust Speed -    
Visibility 10 miles    
Events      
Averages and records for this station are not official NWS values.
T = Trace of Precipitation, MM = Missing Value Source: NWS Daily Summary

Daily Weather History Graph

Daily Weather History Graph

Search for Another Location

Airport or City:

Astronomy

Aug. 09, 2019 Rise Set
Actual Time 6:07 AM ChST 6:45 PM ChST
Civil Twilight 5:44 AM ChST 7:07 PM ChST
Nautical Twilight 5:18 AM ChST 7:33 PM ChST
Astronomical Twilight 4:52 AM ChST 8:00 PM ChST
Moon 1:39 PM ChST (8/9) 12:39 AM ChST (8/9)
Length of Visible Light 13h 23m
Length of Day
12h 38m
Waxing Gibbous, 64% of the Moon is Illuminated
Aug 9
Waxing Gibbous
Aug 15
Full
Aug 24
Last Quarter
Aug 30
New
Sep 6
First Quarter

Hourly Weather History & Observations

Time (ChST) Temp. Heat Index Dew Point Humidity Pressure Visibility Wind Dir Wind Speed Gust Speed Precip Events Conditions
12:54 AM 80.1 °F 86.4 °F 78.1 °F 94% 29.78 in 9.0 mi SSE 3.5 mph - 0.01 in   Clear
1:54 AM 80.1 °F 85.8 °F 77.0 °F 90% 29.77 in 10.0 mi SSE 4.6 mph - N/A   Clear
2:54 AM 80.1 °F 85.8 °F 77.0 °F 90% 29.77 in 10.0 mi South 3.5 mph - N/A   Clear
3:54 AM 80.1 °F 85.8 °F 77.0 °F 90% 29.78 in 10.0 mi South 3.5 mph - N/A   Partly Cloudy
4:54 AM 80.1 °F 85.4 °F 75.9 °F 87% 29.79 in 10.0 mi South 4.6 mph - N/A   Scattered Clouds
5:54 AM 79.0 °F - 75.0 °F 88% 29.79 in 10.0 mi SW 5.8 mph - N/A   Partly Cloudy
6:54 AM 78.1 °F - 73.0 °F 84% 29.80 in 10.0 mi SSE 5.8 mph - N/A   Clear
7:54 AM 79.0 °F - 73.0 °F 82% 29.81 in 10.0 mi SE 4.6 mph - N/A   Clear
8:54 AM 82.0 °F 89.4 °F 75.9 °F 82% 29.81 in 10.0 mi SSE 4.6 mph - N/A   Clear
9:54 AM 84.0 °F 93.7 °F 77.0 °F 79% 29.81 in 10.0 mi South 6.9 mph - N/A   Scattered Clouds
10:12 AM 84.0 °F 93.7 °F 77.0 °F 79% 29.83 in 10.0 mi Variable 6.9 mph - N/A   Mostly Cloudy
10:39 AM 84.9 °F 94.1 °F 75.9 °F 74% 29.83 in 10.0 mi SW 8.1 mph - N/A   Scattered Clouds
10:54 AM 86.0 °F 96.9 °F 77.0 °F 74% 29.80 in 10.0 mi WSW 9.2 mph - N/A   Clear
11:54 AM 87.1 °F 96.3 °F 75.0 °F 67% 29.78 in 10.0 mi SW 10.4 mph - N/A   Clear
12:54 PM 87.1 °F 98.8 °F 77.0 °F 72% 29.77 in 10.0 mi WSW 11.5 mph - N/A   Partly Cloudy
1:54 PM 87.1 °F 97.3 °F 75.9 °F 69% 29.74 in 10.0 mi WSW 8.1 mph - N/A   Partly Cloudy
2:54 PM 87.1 °F 97.3 °F 75.9 °F 69% 29.74 in 10.0 mi West 11.5 mph - N/A   Scattered Clouds
3:54 PM 86.0 °F 96.0 °F 75.9 °F 72% 29.73 in 10.0 mi SW 11.5 mph - N/A   Scattered Clouds
4:54 PM 84.0 °F 92.6 °F 75.9 °F 76% 29.75 in 10.0 mi SW 10.4 mph - N/A   Clear
5:54 PM 82.9 °F 91.8 °F 77.0 °F 82% 29.76 in 10.0 mi WSW 6.9 mph - N/A   Partly Cloudy
6:54 PM 82.0 °F 89.4 °F 75.9 °F 82% 29.78 in 10.0 mi West 6.9 mph - N/A   Clear
7:54 PM 81.0 °F 87.3 °F 75.9 °F 85% 29.79 in 10.0 mi SW 4.6 mph - N/A   Clear
8:54 PM 81.0 °F 87.3 °F 75.9 °F 85% 29.81 in 10.0 mi WSW 4.6 mph - N/A   Clear
9:54 PM 81.0 °F 87.3 °F 75.9 °F 85% 29.82 in 10.0 mi SW 3.5 mph - N/A   Clear
10:54 PM 81.0 °F 87.3 °F 75.9 °F 85% 29.82 in 10.0 mi SSW 4.6 mph - N/A   Clear
11:54 PM 80.1 °F 85.1 °F 75.0 °F 85% 29.81 in 10.0 mi Calm Calm - N/A   Clear